Regional Weather Roundup
Issued by NWS Grand Forks, ND

Home | Current Version | Previous Version | Graphics & Text | Print | Product List | Glossary On
Versions: 1 2 3 4 5 6 7 8 9 10 11 12 13 14 15 16 17 18 19 20 21 22 23 24 25 26 27 28 29 30 31 32 33 34 35 36 37 38 39 40 41 42 43 44 45 46 47 48 49 50
000
ASUS43 KFGF 191031
RWRFGF
PRAIRIE TO PINES  WEATHER ROUNDUP
NATIONAL WEATHER SERVICE EASTERN NORTH DAKOTA/GRAND FORKS ND
500 AM CDT SUN APR 19 2015

 **SATELLITE DATA USED TO AUGMENT SKY COVER AT AUTOMATED STATIONS**
 *****  WEATHER ACROSS EASTERN NORTH DAKOTA  *****

CITY           SKY/WX    TMP DP  RH WIND       PRES   REMARKS
GRAND FORKS    LGT RAIN  48  46  93 CALM      29.74F
GRAND FRKS AFB LGT RAIN  46  45  93 N8        29.73F
GRAND FRKS NWS   N/A     46 N/A N/A N3          N/A
DEVILS LAKE    CLOUDY    45  37  76 N18       29.79F
FARGO          LGT RAIN  50  48  93 E3        29.72F
WAHPETON ARPT  CLOUDY    46  43  87 NE8       29.69F
$$

 ***** WEATHER ACROSS CENTRAL AND WESTERN NORTH DAKOTA  *****

CITY           SKY/WX    TMP DP  RH WIND       PRES   REMARKS
BISMARCK       CLOUDY    43  34  70 NW15G23   29.91R
MINOT          CLOUDY    41  31  67 W17       29.88F
JAMESTOWN      LGT RAIN  46  42  86 NW22G31   29.78S
MINOT AFB      CLOUDY    39  36  88 NW15      29.87F
GARRISON         N/A     40  33  76 NW16      29.90S
WILLISTON      CLOUDY    40  29  64 NW17      29.98F
DICKINSON      CLEAR     34  26  72 W17       29.96F WCI  23
HETTINGER      CLEAR     34  28  79 NW13      29.99S WCI  25
$$

 *****  OTHER AIRPORT OBSERVATIONS IN OUR AREA  *****

CITY           SKY/WX    TMP DP  RH WIND       PRES   REMARKS
WALHALLA       LGT RAIN  46  46 100 SW6       29.76F
GRAFTON AIRPOR CLOUDY    46  46 100 N8        29.74F
VALLEY CITY AR LGT RAIN  46  46 100 NW16G24   29.75S
CANDO          CLOUDY    41  39  93 NW9       29.81F
CAVALIER APRT  LGT RAIN  46  45  93 NW9       29.75F
GWINNER        CLOUDY    48  48 100 NW17G23   29.75F
SHEYENNE NWR     N/A     50  50 100 NW3       29.95S
ROLLA          CLOUDY    41  37  87 NW14G25   29.80F
 ***** THE ABOVE OBSERVATIONS ARE NON NWS ARE NOT QUALITY
       CONTROLLED AND MAY MIS-REPORT RAIN FOR SNOW...
$$

  *****  WEATHER ACROSS NORTHERN MINNESOTA  *****

CITY           SKY/WX    TMP DP  RH WIND       PRES   REMARKS
FLAG ISLAND    DRIZZLE   39  30  70 SE9       29.77F
WARROAD        DRIZZLE   45  37  76 SE7       29.77F
ROSEAU         DRIZZLE   46  39  76 S3        29.76F
HALLOCK        LGT RAIN  46  45  93 N5        29.74F
THF RVR FALLS  CLOUDY    46  43  87 E3        29.75F
BAUDETTE       LGT RAIN  42  33  70 SE7       29.79F
WASKISH        DRIZZLE   43  39  87 CALM      29.78F
CROOKSTON      DRIZZLE   48  46  93 NE3       29.75S
STEPHEN NDAWN    N/A     48  46  93 NW5         N/A
GREENBUSH NDAW   N/A     45  43  93 W3          N/A
$$
  *****  WEATHER ACROSS CENTRAL AND WEST MINNESOTA  *****

CITY           SKY/WX    TMP DP  RH WIND       PRES   REMARKS
FOSSTON        LGT RAIN  45  37  76 CALM      29.74F
BEMIDJI        RAIN      39  38  97 E10       29.75F
PARK RAPIDS    RAIN      43  41  93 E9        29.72F FOG
ELBOW LAKE     CLOUDY    49  49  99 S7        29.65F FOG
WADENA         DRIZZLE   43  41  93 E10       29.68F
DETROIT LAKES  HVY RAIN  45  43  93 E3        29.72F
MOORHEAD       DRIZZLE   48  46  93 N3        29.73F
FERGUS FALLS   CLOUDY    45  45 100 NE8       29.69F FOG
MORRIS MN      CLOUDY    52  50  93 W7        29.66S FOG
STAPLES        LGT RAIN  43  43 100 E8        29.69F
$$
  *****  WEATHER ELSEWHERE ACROSS MINNESOTA  *****

CITY           SKY/WX    TMP DP  RH WIND       PRES   REMARKS
DULUTH         LGT RAIN  38  33  82 E16       29.83F
INTRNTL FALLS  LGT RAIN  43  26  51 S7        29.83F
ELY            LGT RAIN  36  34  93 SE5       29.85F
CLOQUET        LGT RAIN  36  34  93 E12       29.79F
WHEATON        LGT RAIN  46  45  93 NW8       29.71R
BRAINERD       LGT RAIN  41  39  93 VRB7      29.75F
HIBBING        HVY RAIN  38  35  89 E9        29.84F FOG
ALEXANDRIA     LGT RAIN  50  48  93 SE8       29.67F FOG
SAINT CLOUD    LGT RAIN  47  44  90 E6        29.74F
MINNEAPOLIS    LGT RAIN  49  42  77 SE12      29.77F
$$

  *****  WEATHER ACROSS SOUTH DAKOTA  *****

CITY           SKY/WX    TMP DP  RH WIND       PRES   REMARKS
SIOUX FALLS    CLOUDY    56  54  93 W12       29.72S
BROOKINGS      CLOUDY    55  52  88 W13       29.71S
WATERTOWN      CLOUDY    49  47  93 NW17      29.70S
HURON          CLOUDY    49  47  93 NW21      29.77R
SISSETON         N/A     48  48 100 N9        29.70F
ABERDEEN       LGT RAIN  49  46  90 NW16      29.79R
MITCHELL       CLOUDY    50  48  93 NW17G31   29.78R
PIERRE         CLOUDY    45  39  79 N23       29.88R
MOBRIDGE       CLOUDY    45  40  82 NW20G26   29.87R
RAPID CITY     PTCLDY    38  28  67 NW18      30.04R
$$

  *****  SOME WEATHER IN NEARBY STATES *****

CITY           SKY/WX    TMP DP  RH WIND       PRES   REMARKS
GLASGOW MT     CLEAR     33  23  66 W13       30.13S WCI  24
GREAT FALLS MT CLOUDY    33  30  88 SW5       30.26F
CHEYENNE WY    MOCLDY    33  27  78 N28G40    30.07R WCI  20
SCOTTSBLUFF NE MOCLDY    42  32  67 N18       30.06R
OMAHA NE       FOG       57  56  96 SE3       29.74R VSB 1/4
DES MOINES IA  LGT RAIN  59  56  89 NE3       29.76F
DAVENPORT IA   MOCLDY    51  38  60 E7        29.81F
CHICAGO IL     MOCLDY    53  29  39 E9        29.88F
EAU CLAIRE WI  CLOUDY    46  33  60 E9        29.82F
LA CROSSE WI   CLOUDY    51  34  52 E6        29.82F
$$

  *****  SOME NATIONAL WEATHER *****

CITY           SKY/WX    TMP DP  RH WIND       PRES   REMARKS
LA GUARDIA NY  PTCLDY    51  30  44 NE5       30.18R
RALEIGH NC     CLOUDY    65  62  90 E5        30.00S
ATLANTA GA     LGT RAIN  67  64  90 SE8       29.85F FOG
NEW ORLEANS LA MOCLDY    71  68  90 W5        29.78F
OKLAHOMA CITY  PTCLDY    56  49  77 SE5       29.74S
ALBUQUERQUE NM PTCLDY    49  31  49 N8        30.00S
SALT LAKE CITY FAIR      46  35  65 SE7       30.04R
LOS ANGELES CA FAIR      57  54  89 CALM      29.95F
BOISE ID       FAIR      46  24  42 CALM      30.09R
SEATTLE WA     FAIR      51  39  63 NE7       30.23F
$$

*** WEATHER ACROSS MANITOBA...SASKATCHEWAN AND ONTARIO ***
                ***ONTARIO***

CITY           SKY/WX    TMP DP  RH WIND       PRES   REMARKS
GERALDTON      MOCLDY    30  23  74 E7        30.10F WCI  23
THUNDER BAY    MOCLDY    37  28  70 E16       30.01F
SIOUX LOOKOUT  CLOUDY    39  19  45 SE9       29.86F
TORONTO        MOCLDY    39  28  65 E9G20     30.23S
BIG TROUT LK   CLOUDY    37  27  65 SE10G17   30.02F
PICKLE LAKE    NOT AVBL
DRYDEN         CLOUDY    39  18  41 SE10      29.82F
KENORA         LGT RAIN  43  21  42 S12       29.78F
$$
                *** MANITOBA***

CITY           SKY/WX    TMP DP  RH WIND       PRES   REMARKS
BRANDON        CLOUDY    41  36  81 NW14      29.79F
DAUPHIN        CLOUDY    43  37  81 N10       29.83S
ISLAND LAKE    LGT RAIN  41  28  60 SE6       29.83S
PILOT MOUND      N/A     43  39  87 W12         N/A
THE PAS        CLOUDY    36  32  87 N15G23    29.91S
THOMPSON       LGT SNOW  27  25  93 NE20G29   29.96S WCI  13
WINNIPEG       LGT RAIN  45  43  93 W10       29.74F
LYNN LAKE      CLOUDY    23  21  93 NE13G22   30.13R WCI  11
CHURCHILL      PTCLDY    14  12  92 NE8       30.32R WCI   3
GILLAM         LGT SNOW  25  23  93 NE16G25   30.04S VSB 3/4 WCI  12
$$
                ***SASKATCHEWAN***

CITY           SKY/WX    TMP DP  RH WIND       PRES   REMARKS
ESTEVAN        PTCLDY    39  34  81 NW15      29.93F
KINDERSLEY     PTCLDY    28  27  93 NW8       30.20S WCI  20
LLOYDMINSTER   CLEAR     30  28  93 W8        30.20F WCI  23
PRINCE ALBERT  LGT RAIN  36  32  87 N16G24    30.11R
REGINA         CLOUDY    39  34  81 NW20G26   29.99S
YORKTON        CLOUDY    39  37  93 NW12G17   29.90S
N. BATTLEFORD  CLEAR     30  30 100 NW9       30.19S WCI  22
LA RONGE       CLOUDY    34  30  86 N13       30.16R WCI  25
SASKATOON      MOCLDY    37  32  81 NW14      30.13R
SWIFT CURRENT  CLOUDY    34  30  86 NW13G21   30.14R WCI  25
$$
NOTE: THESE ARE AUTOMATED STATIONS WITH LIMITED QUALITY CONTROL
      "FAIR" INDICATES FEW OR NO CLOUDS BELOW 12,000 FEET WITH NO
      SIGNIFICANT WEATHER AND/OR OBSTRUCTIONS TO VISIBILITY.
      SKY/WX - SKY CONDITION AND SIGNIFICANT WEATHER.
      TMP - AIR TEMPERATURE.    DP   - DEWPOINT TEMPERATURE.
      RH  - RELATIVE HUMIDITY.  PRES - PRESSURE.
      HX  - HEAT INDEX.         WCI  - WIND CHILL INDEX.
$



USA.gov is the U.S. government's official web portal to all federal, state and local government web resources and services.